This demonstration page uses our WeatherBlox Daily Observations layout. Learn more.

Left ArrowRight Arrow

Hourly Observations for May 30, 2022

Temp ( °F °C ) Dew Point ( °F °C ) Humidity (%) Winds ( mph kmh ) Pressure ( in mb ) Visibility ( mi km ) Precip ( " mm )
12:53 am 00:53 Mostly Clear 77 25 67 19.4 71 71 S 24 39 29.46 998 10 16 0.00 0.00
1:53 am 01:53 Clear 76 24.4 66 18.9 72 72 S 25 41 29.50 999 10 16 0.00 0.00
2:45 am 02:45 Windy with Storms Likely 75 23.9 67 19.4 76 76 S 25 41 29.48 998 10 16 0.00 0.00
2:53 am 02:53 Windy with Storms Likely 74 23.3 67 19.4 79 79 S 22 35 29.49 999 8 13 0.00 0.00
3:53 am 03:53 Cloudy with Thunderstorms 74 23.3 67 19.4 79 79 S 23 37 29.49 999 10 16 0.00 0.00
4:39 am 04:39 Cloudy 73 22.8 66 18.9 79 79 SSE 24 39 29.46 998 10 16 0.01 0.25
4:53 am 04:53 Cloudy 73 22.8 66 18.9 79 79 SSE 23 37 29.46 998 10 16 0.01 0.25
5:53 am 05:53 Clear 73 22.8 64 17.8 74 74 S 23 37 29.45 997 10 16 0.00 0.00
7:53 am 07:53 Partly Cloudy 73 22.8 63 17.2 71 71 S 33 54 29.47 998 10 16 0.00 0.00
8:53 am 08:53 Partly Cloudy 74 23.3 63 17.2 69 69 S 33 54 29.49 999 10 16 0.00 0.00
9:53 am 09:53 Mostly Cloudy 76 24.4 64 17.8 67 67 S 26 43 29.51 999 10 16 0.00 0.00
10:53 am 10:53 Mostly Cloudy 78 25.6 66 18.9 67 67 S 28 44 29.52 1000 10 16 0.00 0.00
11:53 am 11:53 Mostly Cloudy 81 27.2 67 19.4 62 62 SSW 25 41 29.53 1000 10 16 0.00 0.00
12:53 pm 12:53 Mostly Cloudy 84 28.9 67 19.4 57 57 S 23 37 29.54 1000 10 16 0.00 0.00
1:53 pm 13:53 Partly Cloudy 86 30 67 19.4 53 53 SSW 23 37 29.53 1000 10 16 0.00 0.00
2:53 pm 14:53 Partly Cloudy 87 30.6 67 19.4 51 51 SSW 21 33 29.52 1000 10 16 0.00 0.00
3:53 pm 15:53 Mostly Cloudy 87 30.6 65 18.3 48 48 S 23 37 29.52 1000 10 16 0.00 0.00
4:53 pm 16:53 Partly Cloudy 88 31.1 66 18.9 48 48 S 18 30 29.51 999 10 16 0.00 0.00
5:27 pm 17:27 Partly Cloudy with Thunderstorms 87 30.6 67 19.4 51 51 S 25 41 29.45 997 10 16 0.00 0.00
5:53 pm 17:53 Mostly Cloudy with Thunderstorms 85 29.4 68 20 57 57 S 21 33 29.49 999 10 16 0.00 0.00
6:53 pm 18:53 Mostly Cloudy with Thunderstorms 79 26.1 72 22.2 79 79 S 24 39 29.55 1001 9 14 0.04 1.02
7:25 pm 19:25 Mostly Cloudy 75 23.9 69 20.6 82 82 SSE 14 22 29.54 1000 10 16 0.00 0.00
7:53 pm 19:53 Mostly Cloudy 75 23.9 69 20.6 82 82 SE 14 22 29.57 1002 10 16 0.00 0.00
8:53 pm 20:53 Partly Cloudy 76 24.4 68 20 77 77 SSE 13 20 29.60 1002 10 16 0.00 0.00
9:53 pm 21:53 Partly Cloudy 75 23.9 69 20.6 82 82 SSE 12 19 29.63 1003 10 16 0.00 0.00
10:53 pm 22:53 Mostly Clear 74 23.3 68 20 82 82 SE 12 19 29.64 1004 10 16 0.00 0.00
11:53 pm 23:53 Clear 74 23.3 69 20.6 85 85 SSE 16 26 29.62 1003 10 16 0.00 0.00

Powered by AerisWeather